Hayward, CA

6:17 AM PDT on June 24, 2018 (GMT -0700)
Hayward Executive

Weather History for KHWD - October, 2017

Change the Weather History Date:

Monday, October 9, 2017

  Actual Average Record
Temperature  
Mean Temperature 69 °F 64 °F  
Max Temperature 79 °F 73 °F 87 °F (2016)
Min Temperature 58 °F 55 °F 49 °F (2007)
Degree Days  
Heating Degree Days 0    
Month to date heating degree days 8  
Since 1 July heating degree days 29  
Cooling Degree Days 4    
Month to date cooling degree days 12  
Year to date cooling degree days 559  
Growing Degree Days 21 (Base 50)    
Moisture  
Dew Point 23 °F    
Average Humidity 23    
Maximum Humidity 36    
Minimum Humidity 9    
Precipitation  
Precipitation T in - 0.17 in (2000)
Month to date precipitation T  
Year to date precipitation 13.69  
Sea Level Pressure  
Sea Level Pressure 29.92 in    
Wind  
Wind Speed 7 mph (NE)    
Max Wind Speed 15 mph    
Max Gust Speed 23 mph    
Visibility 10 miles    
Events      
T = Trace of Precipitation, MM = Missing Value Source: NWS Daily Summary

Daily Weather History Graph

Daily Weather History Graph

Search for Another Location

Airport or City:

Astronomy

Oct. 09, 2017 Rise Set
Actual Time 7:11 AM PDT 6:39 PM PDT
Civil Twilight 6:45 AM PDT 7:05 PM PDT
Nautical Twilight 6:14 AM PDT 7:35 PM PDT
Astronomical Twilight 5:44 AM PDT 8:05 PM PDT
Moon 9:57 PM PDT (10/9) 11:24 AM PDT (10/9)
Length of Visible Light 12h 20m
Length of Day
11h 27m
Waning Gibbous, 80% of the Moon is Illuminated
Oct 9
Waning Gibbous
Oct 12
Last Quarter
Oct 19
New
Oct 27
First Quarter
Nov 3
Full

Hourly Weather History & Observations

Time (PDT) Temp. Dew Point Humidity Pressure Visibility Wind Dir Wind Speed Gust Speed Precip Events Conditions
12:54 AM 71.1 °F 12.9 °F 11% 29.85 in 10.0 mi North 8.1 mph - N/A   Clear
1:54 AM 70.0 °F 10.0 °F 10% 29.85 in 10.0 mi NE 9.2 mph - N/A   Clear
2:54 AM 69.1 °F 12.9 °F 11% 29.86 in 10.0 mi North 5.8 mph - N/A   Clear
3:54 AM 68.0 °F 12.9 °F 12% 29.86 in 8.0 mi NNE 9.2 mph - N/A   Clear
4:54 AM 68.0 °F 12.9 °F 12% 29.87 in 7.0 mi NE 9.2 mph - N/A   Partly Cloudy
5:54 AM 66.9 °F 12.9 °F 12% 29.89 in 10.0 mi ENE 5.8 mph - N/A   Clear
6:54 AM 64.9 °F 14.0 °F 14% 29.90 in 10.0 mi ENE 5.8 mph - N/A   Clear
7:54 AM 66.0 °F 14.0 °F 13% 29.91 in 10.0 mi ESE 6.9 mph - N/A   Clear
8:54 AM 66.0 °F 19.9 °F 17% 29.94 in 10.0 mi SSE 4.6 mph - N/A   Clear
9:54 AM 72.0 °F 16.0 °F 12% 29.95 in 10.0 mi East 9.2 mph - N/A   Clear
10:54 AM 75.0 °F 15.1 °F 10% 29.96 in 10.0 mi East 9.2 mph - N/A   Clear
11:54 AM 77.0 °F 15.1 °F 10% 29.95 in 10.0 mi East 4.6 mph - N/A   Clear
12:54 PM 75.0 °F 21.0 °F 13% 29.94 in 10.0 mi SW 5.8 mph - N/A   Clear
1:54 PM 75.9 °F 19.0 °F 12% 29.93 in 10.0 mi WSW 4.6 mph - N/A   Clear
2:54 PM 77.0 °F 25.0 °F 15% 29.92 in 10.0 mi WNW 8.1 mph - N/A   Clear
3:54 PM 78.1 °F 24.1 °F 14% 29.93 in 10.0 mi West 10.4 mph - N/A   Clear
4:54 PM 75.0 °F 37.0 °F 25% 29.94 in 10.0 mi WNW 12.7 mph - N/A   Clear
5:54 PM 75.0 °F 34.0 °F 22% 29.93 in 10.0 mi NW 9.2 mph - N/A   Clear
6:54 PM 71.1 °F 36.0 °F 28% 29.95 in 10.0 mi WNW 5.8 mph - 0.00 in   Clear
7:54 PM 69.1 °F 39.0 °F 33% 29.96 in 10.0 mi North 5.8 mph - N/A   Clear
8:54 PM 68.0 °F 35.1 °F 30% 29.96 in 10.0 mi NE 3.5 mph - N/A   Clear
9:54 PM 64.9 °F 33.1 °F 31% 29.97 in 10.0 mi ENE 5.8 mph - N/A   Clear
10:54 PM 64.0 °F 35.1 °F 34% 29.97 in 10.0 mi ENE 4.6 mph - N/A   Clear
11:54 PM 60.1 °F 34.0 °F 38% 29.97 in 10.0 mi East 4.6 mph - N/A   Clear